Theta_e
314 315 317 323 324 323 322 323 321 323 322 318 318 320 322 321 322 322 321 322 321 323 326 328 329 331 330 330 330 328 326 326 327 326 325 325 324 323 320 319 320 320 321 321 318 319 319 321 321
314 316 318 323 322 320 319 321 324 323 319 318 317 318 320 321 320 320 321 322 321 319 323 325 326 328 330 329 328 328 327 326 325 326 323 321 321 320 320 320 321 322 322 320 320 320 320 318 317
314 316 322 322 321 319 320 321 321 319 317 319 320 318 320 321 320 320 321 322 321 319 320 320 319 321 326 331 331 327 327 328 329 331 330 319 319 319 319 321 323 322 321 319 315 313 313 313 312
316 320 319 321 321 321 320 320 320 321 317 317 318 320 318 320 320 320 320 321 321 320 318 316 315 315 317 331 332 328 326 333 333 333 331 324 319 320 320 320 319 318 316 314 313 311 307 306 305
317 319 319 320 320 319 319 319 318 320 319 318 317 321 319 318 318 318 319 319 321 321 320 317 316 316 315 317 324 326 326 332 332 332 329 319 315 317 317 315 314 313 312 310 306 304 304 304 304
319 319 319 319 319 319 319 318 318 318 318 317 317 319 319 318 317 317 317 318 320 321 321 320 317 315 312 316 319 324 331 332 331 322 314 313 314 314 313 312 312 309 306 304 304 304 305 305 305
318 319 319 320 320 321 321 315 318 319 319 319 317 320 319 318 318 317 317 317 318 321 321 321 319 316 314 320 325 330 332 331 326 315 313 312 312 312 311 309 306 304 304 304 304 305 306 306 306
319 320 320 321 320 320 319 316 316 317 319 317 316 320 319 318 317 317 317 317 318 319 319 320 320 317 314 314 318 324 325 326 323 315 313 311 311 310 307 304 303 304 304 305 305 306 306 306 306
317 320 320 319 319 319 317 318 315 316 316 315 317 317 318 317 317 317 317 317 317 317 318 318 319 318 316 314 314 315 319 319 316 313 311 310 309 307 304 303 303 304 304 305 306 306 306 306 306
319 320 319 318 318 318 317 317 318 316 317 317 316 317 317 317 316 316 316 316 316 317 317 317 317 319 318 316 314 314 315 316 315 312 310 309 308 305 303 303 303 304 305 305 305 306 306 306 306
319 319 319 316 315 314 316 316 316 317 318 318 318 317 317 317 316 316 316 316 316 316 317 317 317 317 318 318 315 314 314 314 313 312 310 309 307 304 303 303 303 304 304 305 305 305 305 305 305
318 317 317 317 315 315 316 316 316 316 317 317 317 316 316 316 316 316 316 315 315 315 316 316 317 317 317 317 317 315 314 314 313 312 310 309 307 305 303 303 304 304 304 304 304 304 304 304 304
317 318 317 316 315 315 315 316 317 316 316 316 316 315 314 315 314 315 315 315 315 315 315 315 316 316 316 316 316 316 315 314 313 313 311 309 307 305 303 303 303 304 304 304 304 304 304 304 304
315 315 315 315 314 315 315 316 315 315 315 314 314 314 314 313 314 314 314 315 315 315 316 315 315 315 316 316 316 316 316 315 314 313 312 309 308 307 304 303 303 303 303 303 304 304 304 304 303
313 315 315 315 313 314 313 315 315 315 314 313 314 314 314 314 314 314 314 315 315 316 315 315 315 315 315 315 316 316 316 315 315 314 313 310 308 307 305 303 302 303 303 303 303 303 303 303 303
313 312 315 315 311 312 314 315 316 315 312 313 314 314 314 314 313 313 313 314 314 314 314 314 315 315 315 315 315 315 315 315 315 314 313 312 309 307 306 303 302 302 302 302 302 302 302 302 302
314 315 315 314 313 312 314 315 315 313 312 313 313 313 313 313 313 313 313 313 312 312 312 312 313 313 314 314 314 314 315 315 315 315 314 313 310 308 306 304 302 301 301 301 301 302 302 302 302
317 315 314 313 314 312 312 313 313 312 312 312 312 313 313 313 312 312 312 312 312 312 312 312 312 312 312 312 313 313 314 314 315 314 314 313 311 309 307 305 302 301 300 300 300 301 301 301 301
313 313 313 314 314 312 313 314 313 312 312 312 313 313 313 313 312 311 311 311 312 312 312 312 312 312 311 311 311 312 312 313 314 314 314 313 312 310 308 306 303 301 300 300 300 300 300 300 300
312 313 314 314 313 310 313 313 313 313 313 313 313 313 313 312 311 311 312 311 311 311 310 311 311 311 311 310 310 310 310 310 312 313 313 313 312 310 309 306 304 302 301 300 300 299 299 299 299
313 313 314 314 313 311 311 314 314 314 312 313 312 312 311 310 311 311 310 311 312 312 312 311 311 310 310 310 309 308 308 308 309 309 311 312 312 311 309 307 305 302 301 300 300 300 299 299 299
314 314 312 311 311 313 311 315 317 316 316 315 312 310 310 310 309 308 307 309 310 311 312 312 311 310 309 308 307 308 307 307 308 308 308 309 310 311 309 307 304 303 301 300 300 299 298 298 299
313 309 310 310 311 311 313 313 319 314 314 314 311 310 308 307 306 305 304 306 308 310 311 309 310 310 309 307 306 305 304 305 305 304 306 307 307 307 308 307 304 303 300 300 300 299 298 298 298
308 310 311 309 311 316 317 315 316 315 314 313 310 307 306 304 303 302 303 306 307 307 308 307 307 307 306 306 305 305 305 303 302 303 303 304 304 306 307 307 305 304 301 300 300 299 298 298 297
309 311 316 321 319 321 311 315 315 315 313 309 307 305 303 302 301 300 301 302 302 304 304 305 305 305 305 305 303 302 303 303 303 302 302 302 302 303 304 305 305 304 303 301 301 300 299 298 297
311 312 320 324 323 323 319 320 319 313 307 306 305 304 303 301 300 302 302 302 302 302 302 302 303 303 303 303 304 304 303 302 301 301 301 301 302 302 302 302 303 304 303 301 301 300 299 298 297
310 311 313 314 316 317 317 317 313 309 307 306 304 303 301 299 298 297 296 298 301 302 301 302 301 300 300 301 301 301 302 303 303 301 300 300 301 300 300 301 302 302 302 301 301 300 300 299 298
310 311 314 312 318 319 317 317 316 311 308 306 304 301 299 297 297 296 295 296 297 299 299 298 298 299 299 298 298 299 299 301 303 302 301 299 299 299 299 299 300 300 301 301 301 300 300 299 298
309 309 309 311 315 319 319 316 313 310 306 305 301 298 297 296 295 295 298 299 298 298 299 298 298 297 298 299 298 297 297 298 298 300 300 301 301 299 298 299 299 299 299 300 300 300 300 299 298
309 312 312 314 315 314 315 315 312 306 302 299 297 295 294 294 294 293 292 293 294 294 295 295 295 295 294 294 296 297 297 296 296 297 298 299 299 301 299 297 297 297 298 299 299 300 299 299 299
Wind_Speed
6 4 3 3 4 3 3 1 2 3 2 1 4 3 4 6 4 5 2 4 9 21 23 24 23 21 20 19 18 17 16 15 14 13 13 11 12 10 10 9 9 9 8 6 5 4 4 4 3
4 3 2 1 4 4 2 0 2 1 1 2 5 5 5 7 9 9 7 6 10 18 23 24 24 22 21 19 19 18 17 16 15 15 15 15 13 12 12 11 11 11 10 9 7 7 7 6 6
2 1 2 1 2 2 3 2 1 2 4 5 3 5 4 3 5 4 5 7 12 18 23 23 23 23 22 20 19 19 17 14 14 13 16 14 13 12 12 11 12 12 12 11 10 9 9 8 8
1 1 2 4 7 8 5 6 7 9 2 6 5 6 5 10 5 6 4 8 13 17 21 22 23 22 23 22 21 19 18 16 14 16 15 11 12 11 11 12 13 14 13 12 10 9 8 7 7
3 1 3 3 5 5 7 9 7 5 2 4 4 2 5 9 10 12 9 7 13 15 19 21 22 22 23 25 23 21 19 20 19 17 14 13 12 12 12 13 13 12 11 10 9 7 5 4 4
2 1 3 4 4 5 8 7 5 6 3 3 4 6 5 7 6 7 10 10 13 16 18 19 21 22 21 24 24 24 23 22 23 19 14 14 13 13 13 13 11 11 10 8 6 5 5 4 4
2 2 3 4 6 5 2 1 4 3 3 5 4 4 5 8 6 7 8 11 14 18 20 20 22 23 22 22 23 23 25 26 25 17 15 15 14 14 13 13 11 10 9 8 8 7 6 5 5
3 2 3 4 3 5 3 3 3 5 4 4 6 5 5 8 12 11 10 12 15 19 21 22 23 25 26 26 26 26 27 29 27 21 18 16 15 15 15 14 13 12 11 10 9 8 7 7 6
4 4 6 5 5 2 5 5 4 5 8 9 11 17 17 21 19 17 15 16 18 20 22 24 26 27 28 28 29 28 29 29 26 23 20 17 17 17 16 16 15 14 13 12 11 9 8 7 6
6 4 6 5 6 5 5 8 9 6 13 20 17 23 22 19 21 20 20 20 21 23 24 25 26 28 30 30 29 28 30 30 29 26 23 21 19 19 18 18 18 17 15 14 12 10 9 7 6
5 7 8 8 14 9 9 12 7 12 15 23 20 16 15 20 23 25 24 24 25 23 26 25 27 28 31 31 31 32 32 32 30 28 26 23 22 22 22 23 21 20 18 16 13 12 11 9 8
6 14 15 7 7 5 8 8 10 16 31 31 27 24 22 29 29 27 26 25 24 25 26 28 29 30 31 32 34 34 34 34 33 30 29 27 26 26 26 25 23 21 19 18 16 14 12 10 9
9 12 13 16 14 15 17 28 19 26 34 35 27 31 28 24 26 25 24 25 24 26 26 28 30 31 33 34 34 36 37 36 34 33 32 31 30 29 28 27 26 24 22 20 18 16 14 12 10
3 9 16 14 17 15 13 30 9 22 19 27 23 27 24 24 22 22 25 22 25 24 23 26 29 32 35 37 37 39 38 38 38 37 35 33 33 32 31 31 29 28 26 24 21 18 16 14 11
5 11 16 20 15 10 9 11 17 29 16 22 28 22 19 17 26 28 25 23 22 22 23 25 26 30 36 38 39 41 41 41 41 39 38 38 37 35 34 34 33 31 29 27 25 22 19 16 14
6 4 10 7 3 3 9 20 20 17 11 16 23 27 25 33 31 31 34 34 33 31 31 29 30 31 35 38 41 43 44 44 44 43 41 41 40 39 37 37 36 34 32 30 28 25 22 19 16
7 13 15 13 6 3 12 13 15 12 14 28 32 35 36 36 33 25 24 27 26 27 28 31 33 35 36 39 43 46 47 47 47 47 46 44 43 42 41 39 38 37 35 33 31 28 25 22 20
14 11 11 10 9 10 15 20 21 34 32 36 39 37 31 25 29 20 18 17 15 16 19 22 24 29 33 38 44 48 50 52 51 51 49 47 46 45 43 42 41 40 39 37 34 32 29 26 23
14 17 21 20 18 15 21 23 20 29 35 37 33 30 22 16 15 17 13 11 9 8 8 12 18 21 25 32 40 45 51 52 53 53 51 51 49 48 46 45 45 44 43 40 37 35 32 29 26
17 22 22 22 16 7 17 23 25 25 26 30 31 24 15 9 11 19 21 22 21 19 15 10 11 15 20 26 31 37 41 46 49 52 55 54 53 52 49 49 48 47 46 44 42 40 38 35 31
18 16 21 23 16 14 13 13 3 6 10 20 16 14 7 8 17 20 22 24 25 28 27 23 17 14 16 19 25 30 36 40 39 44 53 55 54 54 51 51 50 49 49 48 47 45 43 39 36
19 15 16 14 8 9 8 10 12 12 18 12 16 16 20 21 21 21 21 23 25 26 24 24 22 18 13 13 19 24 29 33 36 40 41 47 52 55 54 53 52 52 51 50 48 46 44 42 41
9 5 4 4 8 8 5 6 7 5 4 7 12 16 20 22 23 24 24 26 25 26 25 23 21 20 17 12 13 18 23 26 27 30 37 37 40 47 55 54 55 54 53 52 50 49 48 46 43
1 4 7 2 4 9 10 8 2 3 2 9 12 17 22 22 21 22 23 25 28 27 24 24 24 24 21 16 12 12 17 21 24 30 34 37 37 37 41 53 57 56 56 54 52 50 49 48 47
4 5 5 5 5 7 6 3 7 11 6 12 15 14 16 15 21 28 28 31 31 30 28 27 26 24 23 22 16 13 12 14 20 23 29 32 35 37 36 42 54 59 58 56 54 53 52 51 50
5 7 4 6 10 16 12 8 7 5 20 16 19 18 21 26 24 26 28 26 26 28 30 30 26 24 25 22 19 18 17 15 16 18 22 26 29 31 33 37 41 53 59 59 57 56 54 53 53
4 6 8 4 5 6 10 17 7 9 9 14 17 18 19 18 18 19 20 24 28 28 27 28 27 26 24 22 24 23 21 19 19 19 21 22 25 28 31 32 35 39 51 60 59 59 58 57 56
8 4 7 5 5 9 14 13 10 11 4 7 11 14 15 14 16 18 20 22 25 28 28 27 27 27 25 25 24 23 24 24 22 23 23 24 23 24 27 30 33 36 40 48 59 61 61 60 59
5 6 6 2 4 4 4 9 2 3 5 7 8 11 14 16 16 17 20 22 23 23 24 26 28 29 29 28 28 27 26 25 25 24 23 24 25 24 24 27 31 34 38 42 49 59 61 62 60
6 10 13 8 9 10 13 18 12 5 7 6 5 7 8 10 13 14 15 17 19 20 23 24 25 27 29 28 27 27 28 28 28 29 29 28 27 28 28 26 29 33 37 40 45 49 58 63 63
Wind_Direction
253 263 300 327 251 252 259 191 305 260 249 248 144 239 309 307 288 327 316 204 184 194 196 196 198 195 196 195 194 194 198 202 207 217 224 215 221 226 233 239 246 251 255 266 284 263 255 270 283
262 269 317 278 259 269 68 138 225 327 289 220 218 236 256 285 258 277 276 219 186 187 199 201 204 205 201 202 204 203 204 207 214 222 230 227 226 229 234 238 237 240 253 270 271 265 264 260 256
266 251 275 286 260 307 353 198 49 329 270 226 244 239 277 240 258 235 262 223 194 190 198 204 206 209 209 206 204 206 207 214 217 225 233 225 219 224 218 220 230 239 249 257 256 259 264 270 268
143 40 61 266 276 276 267 297 294 301 237 224 260 260 254 247 262 243 271 236 208 200 199 204 206 209 211 209 207 209 209 205 217 224 229 223 217 211 217 224 231 241 250 255 260 264 265 263 260
161 164 239 268 277 273 262 286 283 280 274 205 212 290 259 280 269 267 260 242 223 214 206 206 207 209 211 212 214 212 206 210 218 217 221 224 231 230 234 240 242 243 248 256 262 267 262 259 251
168 223 242 271 280 277 283 269 267 253 243 219 229 263 268 296 292 275 251 243 222 220 215 213 211 212 213 211 211 208 201 209 214 224 230 232 234 235 238 241 242 244 246 243 231 226 231 241 252
236 229 285 279 282 284 254 234 228 264 241 243 231 261 270 283 289 294 258 236 226 216 215 218 216 216 215 212 208 205 206 213 226 236 233 232 234 236 233 231 231 231 225 220 221 222 225 228 236
169 232 224 224 245 273 212 229 213 244 291 239 209 239 278 272 293 287 269 248 231 224 221 219 219 219 219 218 215 213 216 223 231 239 238 232 229 228 228 227 221 214 212 217 221 225 232 237 237
171 231 245 239 206 212 198 238 204 235 258 248 232 242 271 284 281 276 264 250 240 236 230 225 221 221 224 222 224 221 221 229 236 238 235 231 228 227 227 219 214 214 215 216 220 225 231 237 238
217 236 245 226 226 244 239 242 278 251 259 260 260 264 274 280 277 266 263 259 250 243 240 235 229 226 225 226 226 225 225 228 234 234 232 229 228 228 223 217 214 215 216 219 224 227 233 241 247
198 242 249 243 244 258 271 263 252 265 270 264 268 288 279 278 283 272 267 264 259 253 243 241 238 234 231 230 228 227 228 229 232 231 230 230 227 226 220 218 216 217 217 220 222 223 225 226 227
237 243 248 262 241 237 261 282 256 246 262 276 285 280 275 281 282 278 277 272 260 253 249 241 238 236 237 234 232 233 232 231 232 231 229 229 228 228 225 224 222 221 219 222 223 225 223 223 226
235 255 257 255 257 257 269 268 268 265 270 281 279 281 283 278 279 278 276 270 256 250 246 244 243 240 238 237 237 236 236 236 236 234 232 229 229 230 229 228 226 224 224 224 226 226 227 228 230
306 271 277 274 261 249 244 270 280 266 281 285 282 286 284 284 287 288 279 268 264 260 252 248 245 242 243 242 239 239 238 238 237 237 236 233 232 231 230 229 227 226 225 226 227 227 229 232 235
306 294 290 271 260 231 219 260 236 271 278 281 291 290 291 294 296 295 302 285 279 274 266 255 251 248 245 246 242 242 241 239 239 238 236 235 233 233 231 230 228 227 226 227 226 227 229 230 233
272 249 283 291 174 214 191 273 282 288 278 278 289 289 284 282 285 289 286 284 280 277 274 269 261 253 249 247 244 243 242 241 240 239 238 236 234 233 233 232 230 229 227 227 227 227 227 229 233
230 268 265 286 246 173 207 277 283 286 292 289 283 280 279 287 289 291 288 289 283 278 275 269 262 256 254 251 246 244 242 242 241 239 239 238 236 234 233 233 232 230 229 228 228 228 230 230 230
270 259 253 259 286 247 271 267 280 287 291 282 278 279 283 288 292 313 308 308 299 281 270 269 263 256 253 250 246 244 242 242 240 241 240 239 238 236 234 233 232 232 230 228 228 228 228 227 229
283 272 273 278 279 294 282 291 296 289 280 276 286 279 283 288 320 340 353 353 342 322 295 281 276 271 261 254 247 244 243 243 242 241 242 240 238 236 235 234 233 231 231 231 230 230 228 226 226
259 268 276 280 275 287 290 297 289 274 276 276 278 285 297 327 16 54 50 49 42 33 16 350 312 289 276 267 259 253 250 247 245 243 242 241 239 237 235 235 233 232 231 228 228 229 227 224 224
249 264 275 284 307 277 293 281 269 280 271 284 289 291 311 76 72 48 43 43 45 40 30 20 6 334 299 284 270 259 251 250 251 248 245 243 241 241 239 238 236 234 233 231 230 228 226 226 224
277 263 267 282 299 291 355 295 298 264 274 322 39 65 95 68 47 40 44 47 40 35 30 20 13 2 338 296 277 272 268 260 259 258 257 254 247 244 241 239 239 236 235 233 233 232 230 227 226
261 1 302 295 276 297 258 260 314 252 271 60 67 92 74 39 46 39 36 40 41 35 29 28 22 15 8 357 312 284 274 267 264 262 264 265 265 253 244 241 240 238 237 236 235 233 230 231 230
234 297 278 202 264 261 261 216 325 356 122 62 68 71 43 45 46 42 39 40 38 37 35 31 27 26 26 19 1 327 308 293 275 276 274 273 270 264 256 247 242 241 239 238 238 236 235 234 232
224 305 308 271 222 271 108 284 268 277 354 60 87 62 56 49 42 33 32 30 28 29 28 28 28 24 19 14 13 359 340 318 299 290 282 278 276 274 268 256 245 242 240 240 239 237 236 234 234
173 176 203 271 283 293 313 255 259 243 92 78 55 46 39 35 34 28 25 26 22 21 19 18 19 19 17 14 9 359 346 330 308 300 293 288 286 282 276 268 261 250 243 241 240 239 237 235 235
104 207 234 245 273 276 260 261 242 102 85 61 54 42 34 26 25 19 14 12 11 10 8 6 5 9 11 10 6 4 356 339 321 305 291 288 288 286 283 275 268 262 252 245 243 241 239 237 235
210 206 223 239 246 244 261 264 265 182 74 53 49 30 18 15 17 12 9 7 4 1 1 358 359 358 0 3 3 2 354 348 338 323 311 297 289 287 284 280 273 265 259 253 246 244 242 240 238
206 213 212 122 225 257 274 274 76 58 111 60 33 15 8 9 14 10 5 359 355 353 352 353 351 350 350 349 350 353 354 351 350 346 335 313 297 288 280 279 275 269 264 258 254 247 245 243 240
270 252 215 228 232 231 248 249 324 113 111 76 45 15 9 8 3 2 4 358 356 354 351 350 348 348 350 350 345 341 341 344 345 343 342 340 324 302 289 279 273 272 266 262 259 255 249 245 242